Flag for U.S.A. Weather past 2 weeks in Flint, Michigan, U.S.A.

Now
30 °F

Sunny.


Feels Like: 24 °F
Forecast: 21 / 44 °F
Wind: 6 mph from Southwest

Location: Bishop International Airport


UV Index: 5 (Moderate)

Visibility: 10 mi


Pressure: 30.45 "Hg

Humidity: 61%

Dew point: 18 °F

Location of FlintLocation

Historic Weather in Flint

°F

Flint temperature yesterday

Maximum temperature yesterday: 33 °F (at 2:53 PM)
Minimum temperature yesterday: 23 °F (at 11:53 PM)
Average temperature yesterday: 28 °F

Past Weeks' High & Low Weather Summary

 TemperatureHumidityPressure
High73 °F (Apr 13, 2:53 PM)93% (Apr 4, 8:00 AM)30.43 "Hg (Apr 4, 8:00 AM)
Low20 °F (Apr 16, 6:53 AM)19% (Apr 11, 11:53 AM)29.37 "Hg (Apr 14, 6:53 AM)
Average45 °F60%29.90 "Hg
* Reported Apr 1 7:53 AM — Apr 16 7:53 AM, Flint, Weather by CustomWeather, © 2014

Note: Actual official high and low records may vary slightly from our data, if they occured in-between our weather recording intervals... More about our weather records

Advertising

Historic Weather Conditions — Data for Previous 24 hours

 ConditionsComfort  
Time TempWeatherWind HumidityBarometerVisibility
7:53 AM
Apr 16
25 °FSunny.5 mph72%30.43 "Hg10 mi
6:53 AM20 °FClear.No wind82%30.39 "Hg10 mi
5:53 AM22 °FClear.No wind75%30.36 "Hg10 mi
4:53 AM21 °FClear.5 mph71%30.34 "Hg10 mi
3:53 AM21 °FClear.5 mph74%30.31 "Hg10 mi
2:53 AM21 °FClear.No wind78%30.29 "Hg10 mi
1:53 AM21 °FClear.3 mph81%30.28 "Hg10 mi
12:53 AM25 °FClear.5 mph69%30.28 "Hg10 mi
11:53 PM
Apr 15
23 °FClear.3 mph65%30.26 "Hg10 mi
10:53 PM27 °FClear.No wind51%30.25 "Hg10 mi
9:53 PM27 °FClear.6 mph49%30.23 "Hg10 mi
8:53 PM29 °FSunny.7 mph47%30.19 "Hg10 mi
6:53 PM31 °FMostly cloudy.17 mph47%30.13 "Hg9 mi
5:53 PM33 °FScattered clouds.18 mph45%30.10 "Hg6 mi
4:53 PM31 °FMostly cloudy.20 mph67%30.09 "Hg9 mi
3:53 PM31 °FLight snow. Mostly cloudy.14 mph52%30.07 "Hg8 mi
2:53 PM33 °FBroken clouds.17 mph43%30.05 "Hg10 mi
1:53 PM32 °FOvercast.15 mph50%30.03 "Hg10 mi
12:53 PM30 °FMore clouds than sun.17 mph59%30.02 "Hg9 mi
11:53 AM29 °FOvercast.17 mph64%30.01 "Hg9 mi
10:53 AM27 °FLight snow. Mostly cloudy.14 mph69%29.99 "Hg1 mi
9:53 AM28 °FScattered clouds.20 mph56%29.96 "Hg10 mi
Weather by CustomWeather, © 2014

See weather overview